BEESAT-1

Last updated on Wed Sep 17 2025 00:03:09 GMT+0000 (Coordinated Universal Time)

1 35933U 09051C 25259.44227225 .00000962 00000+0 20645-3 0 9995 2 35933 98.4098 157.6547 0005677 12.6621 347.4721 14.60940714849208
UTC large
Height (km)
Speed (km/s)
/
Latitude / Longitude
Inclination (degrees)
Orbital Period (minutes)
Azimuth
Elevation
Range (km)
Doppler Factor

Next 0 passes for location: London (51.5072 / 0.1276)

Sorry there are no passes over London.